Regional Weather Roundup
Issued by NWS

Home | Current Version | Previous Version | Graphics & Text | Print | Product List | Glossary Off
Versions: 1 2 3 4 5 6 7 8 9 10 11 12 13 14 15 16 17 18 19 20 21 22 23 24 25 26 27 28 29 30 31 32 33 34 35 36

000
ASUS45 KBOU 271807
RWRCO

WEATHER ROUNDUP FOR COLORADO
NATIONAL WEATHER SERVICE DENVER/BOULDER CO
1100 AM MST SAT DEC 27 2014

NOTE: "FAIR" INDICATES FEW OR NO CLOUDS BELOW 12000 FEET WITH NO
SIGNIFICANT WEATHER AND/OR OBSTRUCTIONS TO VISIBILITY.

COZ001>005-013-030-031-271900-
...NORTHWEST COLORADO...

CITY           SKY/WX    TMP DP  RH WIND       PRES   REMARKS
CRAIG          PTSUNNY   11   5  77 CALM      30.27F
HAYDEN         SUNNY     12   7  79 CALM      30.24F
MEEKER         SUNNY     11   6  81 CALM      30.26F
MOUNT WERNER   NOT AVBL
STEAMBOAT SPGS MOSUNNY   11   6  79 CALM      30.22F
WALDEN         SUNNY      9   3  78 S10       30.10F WCI  -6
$$

COZ006>008-011-271900-
...WEST CENTRAL VALLEYS...

CITY           SKY/WX    TMP DP  RH WIND       PRES   REMARKS
GRAND JUNCTION SUNNY     21  12  68 E5        30.35S WCI  15
MONTROSE       PTSUNNY   21  11  65 S6        30.33S WCI  13
EAGLE          MOSUNNY   19  18  93 CALM      30.28S
RIFLE          SUNNY     17   7  64 SW3       30.33S
DELTA          CLOUDY    25  16  69 E5        30.35S WCI  19
NUCLA          NOT AVBL
$$

COZ017>023-064>068-271900-
...SOUTHWEST COLORADO...

CITY           SKY/WX    TMP DP  RH WIND       PRES   REMARKS
DURANGO        MOSUNNY   18   7  62 CALM      30.22R
CORTEZ         SUNNY     23   9  55 E5        30.26F WCI  17
PAGOSA SPRINGS SUNNY     15   8  73 S3        30.18R
TELLURIDE      SUNNY     10   3  74 SE3       30.14F
WOLF CREEK PAS PTSUNNY    7   5  92 MISG      30.01R
$$

COZ009-010-012-014-032>034-037-058>063-271900-
...CENTRAL COLORADO...

CITY           SKY/WX    TMP DP  RH WIND       PRES   REMARKS
ASPEN          SUNNY     10  -2  58 CALM      30.17F
BUENA VISTA      N/A    N/A N/A N/A MISG      30.12
COPPER MTN     CLOUDY     5  -4  66 S3        29.96F HAZE
BERTHOUD PASS  CLOUDY    -9 -15  77 MISG      29.89S
COTTONWOOD PAS MOSUNNY   14   3  62 SE7       30.03F WCI   4
GUNNISON       MOSUNNY    3   0  85 SE5       30.24S WCI  -6
KREMMLING      MOSUNNY   14   3  62 SE3       30.21S
LEADVILLE      SUNNY      8  -5  55 N5        30.04S WCI   0
MONARCH PASS   CLOUDY    -2  -8  78 MISG      30.06F
SALIDA         MOSUNNY   12   4  70 N7        30.21F WCI   2
SUNLIGHT       LGT SNOW N/A N/A N/A CALM      30.07S
WILKERSON PASS MOSUNNY    7   1  78 W9G16     29.96F WCI  -7
$$

COZ069>075-271900-
...SAN LUIS VALLEY/SANGRE DE CRISTO MOUNTAINS...

CITY           SKY/WX    TMP DP  RH WIND       PRES   REMARKS
ALAMOSA        SUNNY     14   5  67 N3        30.18S
LA VETA PASS   NOT AVBL
SAGUACHE       SUNNY     16   3  57 NW12      30.16S WCI   3
$$

COZ035-036-038>040-271900-
...NORTHERN COLORADO FRONT RANGE...

CITY           SKY/WX    TMP DP  RH WIND       PRES   REMARKS
DENVER INTL AP SUNNY     23  11  60 S13       30.13F WCI  11
DMNS CITY PARK   N/A     24   4  44 S14       30.13F WCI  11
AURORA         MOSUNNY   22  11  61 S9        30.13F WCI  12
FRONT RANGE AP SUNNY     23  14  68 S7        30.15F WCI  15
ERIE MUNI ARPT   N/A     23  11  59 S8        30.14F WCI  14
BOULDER MUN AP MIX PCPN  28  10  47 S6        30.12F VSB 3/4 WCI  22
CENTENNIAL     MOSUNNY   20   8  60 S9        30.12F WCI   9
BROOMFIELD     SUNNY     25  10  54 S8        30.13F WCI  16
FORT COLLINS   SUNNY     12  10  92 CALM      30.15F
LONGMONT       SUNNY     24  12  61 E5        30.16F WCI  18
$$

COZ041-046-047-076>085-087-088-271900-
...PIKES PEAK/PALMER DIVIDE AND SOUTHERN FOOTHILLS...

CITY           SKY/WX    TMP DP  RH WIND       PRES   REMARKS
COLO. SPRINGS  MOSUNNY   21  10  62 S7        30.15F WCI  12
A. F. ACADEMY  SUNNY     21   3  45 SE5       30.12F WCI  15
ELLICOTT       NOT AVBL
FALCON         SUNNY     23   5  45 CALM      30.12F
FORT CARSON    SUNNY     23  11  60 S8        30.15F WCI  14
LIMON          SUNNY     20  10  65 W8        30.17F WCI  10
MONUMENT HILL  SUNNY     19   9  63 SE5       30.08F WCI  13
TRINIDAD       SUNNY     17   9  70 W9        30.19F WCI   6
$$

COZ042>045-048>051-090-091-271900-
...NORTHEAST COLORADO...

CITY           SKY/WX    TMP DP  RH WIND       PRES   REMARKS
GREELEY ARPT   SUNNY      5   0  78 N3        30.17F
AKRON          SUNNY     14  10  84 W9        30.17F WCI   2
BURLINGTON     SUNNY     23  12  62 NW12      30.21F WCI  12
WRAY           SUNNY     25  14  61 W8        30.23F WCI  17
STERLING       SUNNY     14   9  79 SW10      30.21F WCI   1
HOLYOKE        SUNNY     27  14  59 W13       30.20F WCI  16
FORT MORGAN    SUNNY     11   5  78 W9        30.19F WCI  -2
$$

COZ086-089-092>099-271900-
...SOUTHEAST COLORADO...

CITY           SKY/WX    TMP DP  RH WIND       PRES   REMARKS
PUEBLO         SUNNY     24  11  57 W7        30.22F WCI  16
LA JUNTA       SUNNY     23  14  68 W12       30.24F WCI  12
LAMAR          SUNNY     24  16  71 W12       30.26F WCI  13
SPRINGFIELD      N/A     27  15  61 W9        30.24F WCI  18
$$


USA.gov is the U.S. government's official web portal to all federal, state and local government web resources and services.